Voltar ao catálogo

STARLINK-34733

AtivoComunicaçõesVLEO
NORAD 66487·PAYLOAD·🇺🇸 United States

Lançado Nov 15, 2025 de Cape Canaveral Space Force Station

Loading…

Próximas Passagens (próximas 24 horas)

TLE

AtualizadoSource: CelesTrak SupGP

Época: Sep 15, 2026, 03:49 UTC

1 66487C 25263C   26258.15951389  .00042337  00000+0  15330-2 0  2583
2 66487  43.0026   0.3417 0001741 264.9636 313.6296 15.27566213    11

Acompanhe STARLINK-34733 em tempo real com AllMySat

Download on the App Store